Time,TemperatureF,DewpointF,PressureIn,WindDirection,WindDirectionDegrees,WindSpeedMPH,WindSpeedGustMPH,Humidity,HourlyPrecipIn,Conditions,Clouds,dailyrainin,SoftwareType,DateUTC
2013-07-21 00:00:00,62.9,56.6,29.79,East,101,3.0,3.0,80,0.00,,,0.00,Wunderground v.1.15,2013-07-21 05:00:00,
2013-07-21 00:10:00,63.1,56.5,29.80,East,101,3.0,5.0,79,0.00,,,0.00,Wunderground v.1.15,2013-07-21 05:10:00,
2013-07-21 00:15:00,63.2,56.6,29.80,East,90,3.0,5.0,79,0.00,,,0.00,Wunderground v.1.15,2013-07-21 05:15:00,
2013-07-21 00:20:00,63.3,56.7,29.80,ESE,119,3.0,3.0,79,0.00,,,0.00,Wunderground v.1.15,2013-07-21 05:20:00,
2013-07-21 00:25:00,63.2,56.6,29.80,ESE,113,2.0,3.0,79,0.00,,,0.00,Wunderground v.1.15,2013-07-21 05:25:00,
2013-07-21 00:30:00,63.1,56.5,29.80,SE,128,3.0,3.0,79,0.00,,,0.00,Wunderground v.1.15,2013-07-21 05:30:00,
2013-07-21 00:35:00,63.1,56.1,29.80,ESE,118,4.0,6.0,78,0.00,,,0.00,Wunderground v.1.15,2013-07-21 05:35:00,
2013-07-21 00:40:00,63.2,56.2,29.80,ESE,117,4.0,4.0,78,0.00,,,0.00,Wunderground v.1.15,2013-07-21 05:40:00,
2013-07-21 00:50:00,63.3,56.0,29.79,ESE,103,3.0,3.0,77,0.00,,,0.00,Wunderground v.1.15,2013-07-21 05:50:00,
2013-07-21 00:55:00,63.2,55.9,29.79,SE,126,3.0,3.0,77,0.00,,,0.00,Wunderground v.1.15,2013-07-21 05:55:00,
2013-07-21 01:00:00,63.2,55.9,29.79,SSE,156,2.0,2.0,77,0.00,,,0.00,Wunderground v.1.15,2013-07-21 06:00:00,
2013-07-21 01:10:00,63.2,55.9,29.80,ESE,115,2.0,2.0,77,0.00,,,0.00,Wunderground v.1.15,2013-07-21 06:10:00,
2013-07-21 01:15:00,63.2,55.5,29.80,SE,145,2.0,2.0,76,0.00,,,0.00,Wunderground v.1.15,2013-07-21 06:15:00,
2013-07-21 01:20:00,63.2,55.5,29.79,East,86,2.0,4.0,76,0.00,,,0.00,Wunderground v.1.15,2013-07-21 06:20:00,
2013-07-21 01:30:00,63.2,55.5,29.79,East,94,3.0,3.0,76,0.00,,,0.00,Wunderground v.1.15,2013-07-21 06:30:00,
2013-07-21 01:35:00,63.3,55.6,29.79,ESE,110,3.0,7.0,76,0.00,,,0.00,Wunderground v.1.15,2013-07-21 06:35:00,
2013-07-21 01:45:00,63.3,55.2,29.78,East,98,4.0,7.0,75,0.00,,,0.00,Wunderground v.1.15,2013-07-21 06:45:00,
2013-07-21 01:50:00,63.3,55.6,29.78,East,83,4.0,4.0,76,0.00,,,0.00,Wunderground v.1.15,2013-07-21 06:50:00,
2013-07-21 01:55:00,63.3,56.0,29.78,East,81,4.0,4.0,77,0.00,,,0.00,Wunderground v.1.15,2013-07-21 06:55:00,
2013-07-21 02:00:00,63.1,55.8,29.78,East,95,3.0,3.0,77,0.00,,,0.00,Wunderground v.1.15,2013-07-21 07:00:00,
2013-07-21 02:10:00,62.8,55.8,29.78,ESE,103,2.0,3.0,78,0.00,,,0.00,Wunderground v.1.15,2013-07-21 07:10:00,
2013-07-21 02:20:00,62.2,55.3,29.78,ESE,104,2.0,2.0,78,0.00,,,0.00,Wunderground v.1.15,2013-07-21 07:20:00,
2013-07-21 02:30:00,61.8,55.2,29.78,ESE,104,1.0,1.0,79,0.00,,,0.00,Wunderground v.1.15,2013-07-21 07:30:00,
2013-07-21 02:35:00,61.6,54.7,29.78,SE,128,1.0,1.0,78,0.00,,,0.00,Wunderground v.1.15,2013-07-21 07:35:00,
2013-07-21 02:40:00,61.4,54.8,29.78,ESE,106,2.0,2.0,79,0.00,,,0.00,Wunderground v.1.15,2013-07-21 07:40:00,
2013-07-21 02:45:00,61.3,54.7,29.77,ESE,122,2.0,3.0,79,0.00,,,0.00,Wunderground v.1.15,2013-07-21 07:45:00,
2013-07-21 02:50:00,61.1,54.5,29.77,SE,124,2.0,3.0,79,0.00,,,0.00,Wunderground v.1.15,2013-07-21 07:50:00,
2013-07-21 03:00:00,60.7,54.5,29.77,ESE,123,1.0,1.0,80,0.00,,,0.00,Wunderground v.1.15,2013-07-21 08:00:00,
2013-07-21 03:10:00,60.5,54.6,29.77,ESE,123,1.0,1.0,81,0.00,,,0.00,Wunderground v.1.15,2013-07-21 08:10:00,
2013-07-21 03:20:00,60.4,54.5,29.77,ESE,123,2.0,2.0,81,0.00,,,0.00,Wunderground v.1.15,2013-07-21 08:20:00,
2013-07-21 03:25:00,60.5,54.6,29.77,East,90,2.0,2.0,81,0.00,,,0.00,Wunderground v.1.15,2013-07-21 08:25:00,
2013-07-21 03:30:00,60.5,54.6,29.77,East,100,2.0,2.0,81,0.00,,,0.00,Wunderground v.1.15,2013-07-21 08:30:00,
2013-07-21 03:35:00,60.6,54.7,29.77,ESE,111,2.0,2.0,81,0.00,,,0.00,Wunderground v.1.15,2013-07-21 08:35:00,
2013-07-21 03:40:00,60.7,54.8,29.77,ESE,112,2.0,2.0,81,0.00,,,0.00,Wunderground v.1.15,2013-07-21 08:40:00,
2013-07-21 03:50:00,60.6,54.7,29.76,ESE,110,2.0,2.0,81,0.00,,,0.00,Wunderground v.1.15,2013-07-21 08:50:00,
2013-07-21 03:55:00,60.5,54.6,29.76,ESE,110,1.0,2.0,81,0.00,,,0.00,Wunderground v.1.15,2013-07-21 08:55:00,
2013-07-21 04:00:00,60.4,54.9,29.76,ESE,110,1.0,1.0,82,0.00,,,0.00,Wunderground v.1.15,2013-07-21 09:00:00,
2013-07-21 04:10:00,60.0,54.8,29.75,ESE,109,2.0,3.0,83,0.00,,,0.00,Wunderground v.1.15,2013-07-21 09:10:00,
2013-07-21 04:20:00,59.6,54.4,29.75,ESE,107,2.0,3.0,83,0.00,,,0.00,Wunderground v.1.15,2013-07-21 09:20:00,
2013-07-21 04:25:00,59.3,54.5,29.75,ESE,107,2.0,3.0,84,0.00,,,0.00,Wunderground v.1.15,2013-07-21 09:25:00,
2013-07-21 04:30:00,59.1,54.3,29.75,ESE,107,2.0,3.0,84,0.00,,,0.00,Wunderground v.1.15,2013-07-21 09:30:00,
2013-07-21 04:35:00,59.0,54.2,29.75,ESE,103,2.0,3.0,84,0.00,,,0.00,Wunderground v.1.15,2013-07-21 09:35:00,
2013-07-21 04:40:00,59.0,54.2,29.74,ESE,102,2.0,2.0,84,0.00,,,0.00,Wunderground v.1.15,2013-07-21 09:40:00,
2013-07-21 04:50:00,59.0,53.8,29.74,East,80,2.0,2.0,83,0.00,,,0.00,Wunderground v.1.15,2013-07-21 09:50:00,
2013-07-21 04:55:00,59.0,53.8,29.74,ESE,102,1.0,2.0,83,0.00,,,0.00,Wunderground v.1.15,2013-07-21 09:55:00,
2013-07-21 05:00:00,59.0,53.8,29.74,ESE,102,2.0,2.0,83,0.00,,,0.00,Wunderground v.1.15,2013-07-21 10:00:00,
2013-07-21 05:10:00,58.7,53.9,29.74,ESE,102,0.0,0.0,84,0.00,,,0.00,Wunderground v.1.15,2013-07-21 10:10:00,
2013-07-21 05:20:00,58.4,53.6,29.74,ESE,102,0.0,1.0,84,0.00,,,0.00,Wunderground v.1.15,2013-07-21 10:20:00,
2013-07-21 05:25:00,58.2,53.4,29.74,ESE,102,0.0,1.0,84,0.00,,,0.00,Wunderground v.1.15,2013-07-21 10:25:00,
2013-07-21 05:30:00,58.1,53.3,29.75,ESE,102,0.0,0.0,84,0.00,,,0.00,Wunderground v.1.15,2013-07-21 10:30:00,
2013-07-21 05:35:00,58.0,53.5,29.74,ESE,102,0.0,0.0,85,0.00,,,0.00,Wunderground v.1.15,2013-07-21 10:35:00,
2013-07-21 05:40:00,57.9,53.4,29.75,ESE,102,0.0,0.0,85,0.00,,,0.00,Wunderground v.1.15,2013-07-21 10:40:00,
2013-07-21 05:45:00,57.8,53.3,29.75,ESE,102,0.0,0.0,85,0.00,,,0.00,Wunderground v.1.15,2013-07-21 10:45:00,
2013-07-21 05:55:00,57.6,53.1,29.74,ESE,102,0.0,0.0,85,0.00,,,0.00,Wunderground v.1.15,2013-07-21 10:55:00,
2013-07-21 06:00:00,57.6,52.8,29.74,ESE,102,1.0,1.0,84,0.00,,,0.00,Wunderground v.1.15,2013-07-21 11:00:00,
2013-07-21 06:10:00,57.7,52.9,29.75,ESE,102,0.0,0.0,84,0.00,,,0.00,Wunderground v.1.15,2013-07-21 11:10:00,
2013-07-21 06:15:00,57.8,53.0,29.75,ESE,102,0.0,0.0,84,0.00,,,0.00,Wunderground v.1.15,2013-07-21 11:15:00,
2013-07-21 06:20:00,57.8,53.0,29.75,ESE,102,0.0,0.0,84,0.00,,,0.00,Wunderground v.1.15,2013-07-21 11:20:00,
2013-07-21 06:30:00,57.9,53.1,29.75,ESE,102,0.0,0.0,84,0.00,,,0.00,Wunderground v.1.15,2013-07-21 11:30:00,
2013-07-21 06:35:00,58.1,53.3,29.75,ESE,102,0.0,0.0,84,0.00,,,0.00,Wunderground v.1.15,2013-07-21 11:35:00,
2013-07-21 06:40:00,58.3,53.5,29.75,ESE,103,0.0,3.0,84,0.00,,,0.00,Wunderground v.1.15,2013-07-21 11:40:00,
2013-07-21 06:45:00,58.6,53.5,29.75,SE,132,1.0,3.0,83,0.00,,,0.00,Wunderground v.1.15,2013-07-21 11:45:00,
2013-07-21 06:50:00,59.0,53.8,29.75,SE,133,1.0,2.0,83,0.00,,,0.00,Wunderground v.1.15,2013-07-21 11:50:00,
2013-07-21 06:55:00,59.0,53.5,29.75,SE,133,1.0,2.0,82,0.00,,,0.00,Wunderground v.1.15,2013-07-21 11:55:00,
2013-07-21 07:00:00,59.3,53.8,29.75,ESE,117,2.0,2.0,82,0.00,,,0.00,Wunderground v.1.15,2013-07-21 12:00:00,
2013-07-21 07:10:00,59.7,54.2,29.75,ESE,118,1.0,1.0,82,0.00,,,0.00,Wunderground v.1.15,2013-07-21 12:10:00,
2013-07-21 07:15:00,59.9,54.4,29.74,ESE,118,1.0,2.0,82,0.00,,,0.00,Wunderground v.1.15,2013-07-21 12:15:00,
2013-07-21 07:20:00,60.0,54.8,29.74,ESE,118,1.0,1.0,83,0.00,,,0.00,Wunderground v.1.15,2013-07-21 12:20:00,
2013-07-21 07:25:00,60.2,54.7,29.75,East,97,1.0,2.0,82,0.00,,,0.00,Wunderground v.1.15,2013-07-21 12:25:00,
2013-07-21 07:30:00,60.4,54.2,29.75,SE,144,2.0,3.0,80,0.00,,,0.00,Wunderground v.1.15,2013-07-21 12:30:00,
2013-07-21 07:35:00,60.6,54.4,29.74,SE,129,2.0,3.0,80,0.00,,,0.00,Wunderground v.1.15,2013-07-21 12:35:00,
2013-07-21 07:45:00,61.1,54.5,29.74,East,89,2.0,2.0,79,0.00,,,0.00,Wunderground v.1.15,2013-07-21 12:45:00,
2013-07-21 07:50:00,61.3,54.7,29.74,ESE,118,2.0,2.0,79,0.00,,,0.00,Wunderground v.1.15,2013-07-21 12:50:00,
2013-07-21 07:55:00,61.6,55.0,29.74,SSE,150,1.0,2.0,79,0.00,,,0.00,Wunderground v.1.15,2013-07-21 12:55:00,
2013-07-21 08:00:00,62.0,55.4,29.73,SE,130,2.0,2.0,79,0.00,,,0.00,Wunderground v.1.15,2013-07-21 13:00:00,
2013-07-21 08:10:00,62.6,54.9,29.73,SSE,149,3.0,4.0,76,0.00,,,0.00,Wunderground v.1.15,2013-07-21 13:10:00,
2013-07-21 08:15:00,62.8,55.1,29.73,SSE,150,4.0,7.0,76,0.00,,,0.00,Wunderground v.1.15,2013-07-21 13:15:00,
2013-07-21 08:20:00,63.3,55.6,29.73,ESE,122,3.0,3.0,76,0.00,,,0.00,Wunderground v.1.15,2013-07-21 13:20:00,
2013-07-21 08:25:00,64.0,55.5,29.73,SE,137,3.0,4.0,74,0.00,,,0.00,Wunderground v.1.15,2013-07-21 13:25:00,
2013-07-21 08:30:00,64.6,56.1,29.73,SSE,157,3.0,7.0,74,0.00,,,0.00,Wunderground v.1.15,2013-07-21 13:30:00,
2013-07-21 08:40:00,65.3,56.4,29.73,SSE,153,4.0,4.0,73,0.00,,,0.00,Wunderground v.1.15,2013-07-21 13:40:00,
2013-07-21 08:45:00,65.9,57.0,29.73,SSE,152,2.0,4.0,73,0.00,,,0.00,Wunderground v.1.15,2013-07-21 13:45:00,
2013-07-21 08:50:00,66.5,57.6,29.73,SE,146,2.0,3.0,73,0.00,,,0.00,Wunderground v.1.15,2013-07-21 13:50:00,
2013-07-21 08:55:00,67.1,57.4,29.73,SE,137,3.0,4.0,71,0.00,,,0.00,Wunderground v.1.15,2013-07-21 13:55:00,
2013-07-21 09:00:00,67.5,57.8,29.73,SSE,161,3.0,3.0,71,0.00,,,0.00,Wunderground v.1.15,2013-07-21 14:00:00,
2013-07-21 09:10:00,67.8,58.1,29.73,ESE,112,4.0,4.0,71,0.00,,,0.00,Wunderground v.1.15,2013-07-21 14:10:00,
2013-07-21 09:15:00,67.9,58.1,29.73,SE,131,5.0,5.0,71,0.00,,,0.00,Wunderground v.1.15,2013-07-21 14:15:00,
2013-07-21 09:25:00,68.2,58.8,29.73,ESE,119,4.0,7.0,72,0.00,,,0.00,Wunderground v.1.15,2013-07-21 14:25:00,
2013-07-21 09:30:00,68.1,58.7,29.73,SE,128,4.0,4.0,72,0.00,,,0.00,Wunderground v.1.15,2013-07-21 14:30:00,
2013-07-21 09:35:00,68.1,58.7,29.73,ESE,115,4.0,5.0,72,0.00,,,0.00,Wunderground v.1.15,2013-07-21 14:35:00,
2013-07-21 09:40:00,68.6,60.0,29.72,ESE,113,4.0,4.0,74,0.00,,,0.00,Wunderground v.1.15,2013-07-21 14:40:00,
2013-07-21 09:45:00,69.4,60.0,29.72,SE,145,3.0,4.0,72,0.00,,,0.00,Wunderground v.1.15,2013-07-21 14:45:00,
2013-07-21 09:50:00,70.2,60.7,29.72,SSE,152,3.0,3.0,72,0.00,,,0.00,Wunderground v.1.15,2013-07-21 14:50:00,
2013-07-21 09:55:00,70.5,60.2,29.72,South,169,3.0,6.0,70,0.00,,,0.00,Wunderground v.1.15,2013-07-21 14:55:00,
2013-07-21 10:00:00,70.4,60.5,29.72,SE,144,4.0,4.0,71,0.00,,,0.00,Wunderground v.1.15,2013-07-21 15:00:00,
2013-07-21 10:10:00,71.1,61.2,29.72,SE,145,4.0,4.0,71,0.00,,,0.00,Wunderground v.1.15,2013-07-21 15:10:00,
2013-07-21 10:15:00,71.5,62.0,29.71,SSE,165,3.0,4.0,72,0.00,,,0.00,Wunderground v.1.15,2013-07-21 15:15:00,
2013-07-21 10:20:00,72.3,62.4,29.71,SSE,156,2.0,3.0,71,0.00,,,0.00,Wunderground v.1.15,2013-07-21 15:20:00,
2013-07-21 10:30:00,73.1,62.7,29.70,SSE,163,2.0,4.0,70,0.00,,,0.00,Wunderground v.1.15,2013-07-21 15:30:00,
2013-07-21 10:35:00,73.2,62.4,29.70,ESE,116,3.0,4.0,69,0.00,,,0.00,Wunderground v.1.15,2013-07-21 15:35:00,
2013-07-21 10:45:00,73.6,64.0,29.70,SW,217,2.0,3.0,72,0.00,,,0.00,Wunderground v.1.15,2013-07-21 15:45:00,
2013-07-21 10:50:00,73.9,63.1,29.70,ESE,122,2.0,5.0,69,0.00,,,0.00,Wunderground v.1.15,2013-07-21 15:50:00,
2013-07-21 10:55:00,73.9,62.7,29.70,SSE,149,3.0,6.0,68,0.00,,,0.00,Wunderground v.1.15,2013-07-21 15:55:00,